Wind_Speed
40 41 41 41 40 39 39 40 40 39 38 37 37 36 38 40 41 39 37 37 34 31 27 23 20 19 19 17 16 14 13 10 7 7 9 12 14 18 19 19 20 21 20 19 17 16 13 12 15 16 17 19 22 23 23 23 22 23 24 23 23 22 21 20 19 19 18 18 17 16 15 15 14 14 14 15 15 16 16 17 17 17 18 18 17 18
43 44 43 41 39 38 39 40 40 41 39 38 39 39 40 42 43 41 40 40 37 34 31 27 22 21 21 19 17 16 14 12 9 7 9 12 15 18 21 21 21 21 21 19 18 17 16 14 16 17 17 19 22 23 23 23 23 24 24 24 23 22 20 19 19 18 18 17 17 16 16 15 14 14 14 14 14 15 15 16 16 16 17 16 16 16
45 44 41 39 38 38 39 40 42 43 41 39 40 41 42 45 45 43 43 41 39 37 34 29 26 24 22 20 18 18 16 14 12 9 8 11 14 18 22 23 23 23 22 20 18 17 16 16 17 18 18 20 23 24 25 25 25 26 25 24 23 21 20 19 18 18 17 17 16 16 16 15 15 14 13 13 14 14 14 15 15 15 15 15 15 15
45 41 38 38 38 39 41 41 43 43 40 39 41 43 45 47 46 44 43 42 41 41 35 32 30 27 24 22 19 20 18 16 14 12 10 10 13 18 23 25 24 24 23 21 19 16 16 17 19 20 20 22 24 24 25 26 26 26 25 24 22 20 19 18 18 18 17 16 15 15 15 15 15 14 13 13 13 13 13 14 14 14 14 14 14 13
44 39 38 40 40 40 41 41 42 41 40 39 41 44 47 46 44 43 43 43 43 41 37 34 33 29 27 24 21 22 20 18 17 14 12 11 14 17 21 24 25 24 24 23 21 18 16 18 20 22 23 24 25 24 23 24 26 26 25 24 22 20 18 18 17 17 16 15 15 14 14 14 14 14 13 12 12 12 12 12 12 12 12 12 12 11
44 39 39 41 39 39 40 40 41 39 38 38 39 44 44 42 41 40 42 44 43 40 38 35 34 33 30 26 24 23 22 21 19 17 15 13 14 17 19 22 24 24 24 24 22 19 17 19 21 22 24 25 26 25 23 24 26 26 26 25 23 20 18 17 17 17 16 15 14 13 13 13 13 12 12 11 11 11 11 10 10 10 10 10 10 9
44 41 40 41 40 40 40 40 39 37 36 36 38 42 40 39 39 37 40 42 42 42 39 36 37 36 33 30 28 25 24 23 22 19 17 15 14 16 18 19 22 24 24 25 24 21 18 19 21 23 24 25 26 26 25 26 27 27 26 24 23 20 18 17 17 16 15 14 13 12 11 11 11 11 10 10 9 10 9 8 8 8 8 8 8 8
47 42 40 41 40 39 39 38 35 33 33 34 36 37 36 36 35 34 36 39 42 44 40 39 40 38 36 35 31 28 26 26 24 22 19 17 15 16 18 19 20 23 25 25 24 22 19 19 21 24 26 27 27 27 27 28 28 27 25 24 23 21 19 17 17 16 15 13 12 11 10 9 9 9 9 9 8 8 8 8 7 6 6 6 6 6
49 40 39 40 38 37 38 35 31 31 33 33 32 32 34 33 32 32 34 36 43 45 42 43 42 40 40 39 34 30 29 28 27 24 20 18 17 16 18 20 21 23 24 25 25 23 20 21 23 26 29 30 30 29 28 28 28 26 25 25 24 22 20 19 18 17 15 14 12 11 9 8 7 7 7 8 8 7 7 7 6 5 4 4 4 4
47 40 39 37 35 38 37 32 31 33 33 30 29 30 32 31 30 32 34 37 43 45 46 49 46 43 43 40 36 34 34 33 30 25 21 20 18 16 17 20 22 24 25 25 26 24 22 23 26 29 32 32 31 29 28 29 29 28 27 27 26 24 22 21 20 18 16 15 13 11 9 8 6 5 5 5 6 6 6 5 5 5 4 3 2 2
47 42 39 35 36 40 37 32 33 33 30 27 28 30 29 29 29 32 34 38 43 46 50 52 50 47 46 42 39 39 39 36 29 24 24 23 19 16 16 18 21 24 26 27 27 25 25 27 30 33 33 33 31 30 31 31 30 28 27 27 27 25 24 22 21 19 17 15 13 11 10 8 7 6 5 4 3 4 4 4 4 3 3 2 2 2
48 44 40 38 41 42 37 33 33 32 29 27 28 28 26 26 28 30 34 37 41 46 50 52 49 49 48 44 42 44 41 35 29 27 26 23 19 17 15 16 18 20 24 26 28 28 28 31 33 34 34 33 33 33 33 32 30 28 27 26 26 24 23 21 20 18 16 15 13 12 11 10 9 8 7 6 5 4 3 3 3 2 1 1 2 2
51 48 43 42 43 42 38 34 33 31 30 29 28 27 25 25 27 29 32 34 38 44 47 47 45 47 50 46 44 45 41 35 31 30 28 24 21 18 16 16 17 18 21 24 27 29 31 33 35 35 33 32 33 34 33 31 29 28 28 27 25 24 22 20 18 17 16 16 15 14 13 12 11 10 9 9 8 7 6 5 4 3 2 1 2 3
55 52 47 46 45 42 40 37 35 35 34 32 28 27 26 25 26 28 30 31 35 40 42 41 41 47 52 46 44 45 41 36 34 32 29 25 22 19 17 16 17 18 20 23 26 29 32 34 35 35 33 32 33 33 32 31 30 29 29 27 25 23 21 19 18 17 16 16 16 16 15 14 13 12 12 11 11 10 10 9 8 5 4 4 4 4
56 53 48 48 49 47 46 44 42 40 37 32 28 27 25 23 25 27 27 28 32 35 36 37 40 48 51 46 44 45 42 38 36 34 31 27 24 21 18 17 18 19 21 23 26 29 32 35 37 36 34 33 34 34 34 32 32 31 30 28 26 23 21 19 18 17 16 15 15 16 16 16 15 15 14 13 13 13 13 13 11 8 7 6 6 5
57 53 51 53 53 52 50 46 44 41 37 33 30 27 27 27 27 26 25 26 29 32 34 36 40 46 48 47 47 47 45 42 39 36 33 29 26 23 21 19 19 20 21 23 27 30 32 35 37 37 36 35 36 36 36 35 34 32 30 28 26 24 23 22 21 20 18 17 16 16 16 17 17 16 15 15 15 15 15 15 13 12 11 10 9 8
58 56 55 55 55 52 51 49 45 42 38 35 32 31 32 31 26 24 25 26 29 32 34 35 39 44 46 47 48 48 47 45 40 38 35 32 28 26 24 23 21 21 22 24 27 29 31 34 37 37 37 37 37 38 38 37 34 32 30 29 27 27 26 25 23 21 20 20 19 17 17 18 18 17 17 17 17 17 17 16 15 14 14 13 13 12
61 59 58 59 57 55 55 53 49 46 41 37 36 36 35 30 27 27 27 27 30 34 34 33 35 39 42 45 48 48 48 45 42 40 38 35 31 29 28 26 24 23 23 25 27 29 32 34 36 36 37 37 38 38 38 36 35 33 32 31 30 30 28 27 24 23 22 23 21 20 19 18 18 18 18 18 18 17 17 16 15 15 15 16 16 16
64 62 61 62 62 60 60 56 51 49 43 41 41 38 33 31 32 32 29 29 33 35 33 32 33 35 38 41 45 47 49 48 45 43 41 38 35 33 31 29 27 24 24 25 28 30 32 34 35 36 36 37 37 37 37 36 35 34 34 33 33 32 30 28 27 26 25 24 23 21 20 19 19 19 18 18 17 17 16 15 15 16 17 18 19 19
67 65 63 65 66 64 62 56 52 50 45 43 42 36 34 35 36 34 31 32 34 35 33 33 33 34 34 36 40 44 48 49 48 46 43 41 39 36 33 31 29 27 25 26 28 31 33 34 34 34 34 34 34 34 35 35 35 35 34 34 33 32 31 30 30 29 27 25 23 22 22 21 19 18 18 17 17 17 16 16 16 17 18 20 21 22
69 69 66 68 69 66 61 56 54 52 48 46 43 38 38 39 38 36 34 32 34 36 35 34 34 33 31 32 36 41 45 48 48 47 45 42 40 38 35 32 30 29 28 27 28 31 33 33 34 33 33 33 32 31 31 32 33 34 33 33 33 32 32 32 31 29 27 26 25 24 23 21 20 19 19 18 18 18 17 17 17 18 19 21 23 23
72 71 69 69 69 66 62 59 58 56 53 51 47 43 43 42 40 38 34 33 35 37 36 35 33 32 30 30 33 38 43 46 47 47 46 44 42 40 37 34 33 31 31 30 29 30 32 33 33 33 32 32 32 31 31 32 33 33 33 33 32 32 33 32 31 30 28 27 26 26 25 24 23 22 21 20 20 19 19 19 20 20 22 23 24 25
74 73 71 70 70 69 65 63 61 59 57 54 49 44 42 41 39 36 35 36 37 38 36 33 31 30 29 29 30 34 40 44 46 47 48 47 46 44 42 39 37 35 34 32 31 31 32 33 33 33 32 31 32 32 32 33 34 34 34 33 32 33 34 33 31 30 28 28 29 28 28 27 27 25 24 23 22 21 21 22 22 24 25 26 26 27
77 76 75 73 72 72 67 64 64 62 59 55 49 45 42 40 39 37 37 38 38 38 35 31 30 28 27 27 27 30 35 40 44 47 49 50 49 48 46 44 42 40 38 36 34 34 33 34 34 34 34 33 33 34 34 35 36 35 35 34 34 36 35 33 32 31 31 31 31 31 31 31 30 29 28 26 25 25 25 25 25 26 28 28 28 29
80 79 78 76 75 73 69 66 66 63 59 55 51 48 45 43 42 41 41 41 39 38 35 33 30 27 25 25 25 27 32 37 41 45 48 51 52 51 50 47 45 44 42 40 39 37 36 36 36 37 37 37 37 37 37 38 37 36 36 36 36 36 35 33 33 33 33 33 33 33 34 34 32 32 31 30 29 29 29 29 29 30 30 30 31 31
82 81 80 78 75 74 70 67 65 62 58 56 53 49 46 45 44 43 44 43 41 38 36 35 33 29 26 26 25 27 31 35 38 42 46 49 52 53 52 50 48 46 44 42 41 40 39 38 38 38 39 39 40 40 40 40 40 39 39 38 37 37 35 34 35 35 35 35 35 35 36 36 35 35 35 33 33 33 33 34 34 33 33 34 34 33
84 82 82 80 77 75 71 68 66 63 61 59 55 51 49 48 47 47 47 45 43 41 38 37 36 32 30 29 28 28 30 32 36 39 43 47 49 51 52 51 50 48 46 44 42 42 42 42 41 40 40 41 41 42 42 42 41 41 40 39 38 37 36 36 37 37 37 37 37 37 38 38 38 38 37 36 36 37 37 38 38 37 37 37 37 36
86 85 84 82 79 76 73 70 68 65 64 61 58 55 54 52 52 50 49 48 47 44 41 41 40 37 34 32 30 29 30 31 34 36 38 42 46 48 50 50 50 49 48 46 44 44 44 44 43 43 42 42 42 42 42 42 42 42 41 41 39 38 38 38 39 39 40 39 40 40 40 40 41 40 39 39 39 39 40 40 41 41 41 40 39 38
89 87 86 83 80 77 75 73 70 68 66 63 61 59 58 56 55 53 52 51 49 45 44 45 44 40 38 35 32 32 31 31 32 33 34 38 42 46 48 49 50 50 50 49 48 47 47 46 45 44 43 42 42 42 42 43 43 43 43 42 41 41 41 40 41 41 42 42 43 43 42 42 43 42 42 41 42 42 43 43 43 43 43 42 41 40
90 89 87 85 82 79 77 75 73 70 68 66 64 62 60 58 57 56 54 52 50 48 47 47 46 44 43 40 36 35 34 32 32 32 33 35 37 40 44 48 50 51 51 51 51 50 49 48 47 46 45 44 44 44 44 44 44 44 44 44 43 43 43 42 43 44 44 45 45 45 44 44 44 44 44 43 44 44 44 45 45 45 44 43 43 42
91 89 88 86 84 82 80 78 75 73 71 68 66 64 62 60 59 57 56 54 52 50 49 49 47 46 46 44 40 38 36 34 34 34 34 33 33 34 38 42 46 49 51 52 52 52 51 50 49 48 47 47 47 47 46 46 46 45 45 45 44 44 44 44 45 46 47 47 47 47 46 46 46 46 46 45 45 45 45 45 45 45 45 44 44 44
91 89 88 88 87 85 83 81 78 76 73 71 68 66 64 62 61 60 58 56 53 51 51 50 48 48 49 47 42 38 36 35 35 35 34 32 32 32 33 35 39 43 47 50 52 53 53 53 52 51 51 50 50 49 49 49 48 48 47 47 47 46 46 46 47 48 48 48 48 49 49 49 49 48 48 47 47 46 46 46 46 46 46 46 46 46
92 90 90 91 90 87 85 83 80 78 76 73 70 68 67 65 65 64 61 59 56 53 51 49 49 50 51 48 43 39 38 37 38 36 34 32 31 31 32 33 34 36 39 43 46 49 51 52 53 53 53 53 52 52 52 51 50 50 50 49 49 48 48 49 49 50 50 50 50 51 51 51 50 50 49 49 48 48 48 48 48 49 49 49 49 49
92 91 92 92 91 90 87 84 83 81 79 75 72 71 70 68 68 67 64 60 58 56 53 51 51 51 51 49 46 42 41 41 39 36 32 31 31 32 33 33 33 33 33 35 38 41 44 47 49 51 52 52 53 53 53 53 53 53 52 52 51 51 51 52 52 52 52 52 53 54 54 53 53 52 52 52 51 51 51 51 52 52 52 52 52 52
94 93 93 93 92 91 89 87 86 84 82 78 75 73 72 71 70 68 66 64 62 60 56 54 52 51 52 52 50 47 45 42 39 36 35 33 33 35 36 36 35 34 34 34 35 36 37 40 42 45 47 48 49 50 51 52 53 53 53 53 54 54 54 55 54 54 55 55 55 55 55 56 56 55 55 54 54 53 54 54 55 55 55 55 54 54
96 95 95 94 94 93 91 90 89 87 84 80 76 75 75 74 72 71 70 68 65 63 60 57 54 52 54 54 52 49 48 45 41 40 40 39 38 37 37 37 37 36 35 35 35 35 35 36 37 38 40 41 43 44 45 47 48 49 50 51 53 54 55 55 56 56 57 57 58 58 58 58 58 58 58 57 57 57 58 58 59 59 58 58 58 58
98 97 96 95 95 94 93 92 91 88 85 82 79 78 77 76 75 73 73 70 67 65 63 60 57 55 56 56 53 51 50 48 46 44 44 43 43 41 40 38 37 36 36 35 34 34 33 34 34 34 35 36 37 38 39 40 42 43 44 46 47 49 50 52 53 54 55 56 57 58 58 59 59 59 59 59 60 61 61 62 62 62 62 62 62 62
100 98 97 96 96 95 94 94 93 90 87 86 84 82 80 79 78 76 75 73 69 67 67 65 61 59 58 57 55 53 53 51 50 50 48 45 44 43 42 40 37 36 35 34 33 32 32 32 32 32 33 34 34 35 35 36 37 38 40 41 42 43 45 46 48 49 50 51 52 53 54 55 55 56 57 57 58 59 60 61 61 61 62 62 63 63
100 99 98 98 97 97 96 95 93 92 91 90 87 84 82 82 81 79 78 76 73 72 71 69 66 63 61 59 57 56 56 55 54 54 52 47 45 45 44 42 40 38 37 36 34 33 33 33 33 33 33 33 33 33 33 33 34 35 36 37 38 39 41 42 43 44 45 45 46 47 49 50 51 52 53 53 54 54 55 55 56 56 57 57 57 57
100 100 99 98 98 98 97 95 95 95 94 92 89 86 84 83 83 82 81 79 77 76 74 72 70 68 65 63 61 59 58 58 57 56 54 51 49 48 47 45 44 42 41 39 38 37 37 36 35 34 35 35 34 34 34 34 34 35 35 35 36 37 38 39 39 39 40 41 42 43 45 46 47 48 48 49 49 49 49 49 50 50 50 51 51 51
99 99 99 98 98 98 98 97 97 97 96 93 91 89 87 85 84 84 84 83 80 78 76 75 74 72 69 68 65 63 61 60 59 58 58 57 55 51 49 49 47 46 45 44 42 41 40 39 38 37 37 37 37 36 36 36 36 36 36 36 37 38 38 38 38 38 39 39 40 41 42 43 44 44 45 45 45 44 44 44 45 46 47 47 48 48
98 98 98 98 98 98 99 99 99 99 98 95 93 91 89 88 88 87 87 85 83 80 78 77 76 74 73 72 69 67 65 63 62 62 61 61 59 56 53 51 50 49 48 47 46 44 43 42 41 40 39 39 39 39 39 39 39 39 39 39 40 40 40 40 40 40 40 41 42 42 43 43 43 43 43 43 43 43 42 42 43 44 45 46 46 46
95 96 97 98 98 99 100 101 101 101 99 96 94 93 92 91 90 89 87 86 84 81 79 78 77 76 75 74 72 71 69 67 66 65 64 63 62 60 56 54 53 52 51 49 48 47 46 45 44 43 42 42 42 42 42 41 41 41 41 42 43 43 43 43 43 43 43 44 44 44 45 45 45 45 45 44 44 44 43 43 43 44 45 45 45 45
94 95 96 98 99 99 100 101 102 100 98 96 95 95 94 93 92 90 88 87 85 83 80 79 79 78 77 76 75 74 72 70 69 68 66 65 64 62 60 57 55 54 53 52 51 49 49 48 46 45 45 44 44 44 44 44 44 44 44 45 45 46 46 47 47 46 46 46 47 47 47 47 47 47 47 47 46 46 46 45 45 45 45 45 45 45
94 95 95 96 97 98 97 98 99 98 97 96 96 96 95 95 94 92 90 88 87 85 83 82 81 80 80 79 78 77 75 73 71 70 69 67 66 65 63 60 59 57 56 55 54 53 52 51 49 48 48 47 47 47 47 47 47 47 47 48 48 48 49 49 50 50 50 50 49 49 49 50 50 50 50 49 48 48 48 48 47 47 47 47 46 46
93 93 93 94 95 95 95 96 97 98 98 98 98 98 97 97 96 94 92 90 89 88 86 84 83 82 81 81 80 79 77 75 73 72 70 69 68 67 65 64 62 61 60 58 57 56 55 54 53 52 51 50 50 50 50 50 50 50 51 51 51 51 52 52 52 53 53 53 53 53 53 53 53 53 53 52 51 50 50 50 49 49 49 49 49 49
92 92 92 93 93 93 94 95 96 97 98 99 99 98 98 99 98 97 95 93 92 90 89 87 85 84 83 82 81 81 79 78 76 74 72 71 70 69 68 67 66 64 63 61 59 58 58 57 57 56 55 54 53 53 53 53 53 54 54 54 54 54 54 55 55 55 56 56 56 56 56 56 56 56 55 55 54 53 52 52 51 51 52 52 52 51
93 92 91 90 90 90 92 93 95 96 98 99 100 100 101 100 100 99 98 96 94 92 91 89 88 86 85 84 83 82 81 80 78 76 75 73 72 71 70 69 68 67 66 64 62 61 60 60 60 60 59 58 57 56 56 56 56 56 57 57 57 57 58 58 58 58 59 59 58 59 58 58 58 58 58 58 57 56 56 55 55 54 54 54 54 54
93 92 90 88 88 89 89 92 95 97 99 101 102 102 102 101 100 99 99 97 96 94 93 91 90 88 87 86 85 84 84 83 82 80 78 76 74 73 72 71 70 69 68 67 66 65 64 63 63 62 62 62 61 61 60 59 59 59 59 60 60 60 60 61 61 61 61 61 61 61 61 60 60 60 60 60 60 59 59 59 58 58 57 58 58 57
94 92 90 89 88 87 88 91 94 96 98 100 101 101 101 101 100 99 99 98 97 96 95 93 92 91 90 89 88 87 87 86 85 84 82 80 78 76 74 73 72 71 71 70 70 69 68 67 66 65 64 64 64 63 63 63 63 63 63 63 63 63 63 63 63 63 64 64 64 64 64 63 63 63 63 63 63 62 62 62 62 61 61 61 61 60
94 92 91 89 88 87 87 90 91 93 95 98 100 100 101 101 100 100 99 98 97 97 96 95 95 94 93 91 90 90 89 88 88 87 86 84 82 80 77 76 75 73 73 72 72 71 71 70 69 68 67 66 66 66 66 66 66 66 66 66 66 65 65 65 65 66 66 66 66 66 66 66 66 66 66 66 66 66 65 65 65 64 64 64 64 63
Wind_Direction
250 249 247 246 246 247 248 249 250 251 249 250 251 250 251 252 253 252 252 253 251 248 248 246 245 249 252 253 255 257 260 266 277 275 258 240 221 203 193 192 190 187 186 191 198 203 209 219 220 213 207 197 179 174 174 169 169 170 168 167 166 167 163 161 159 156 154 151 148 145 140 137 134 131 127 123 120 115 112 111 109 106 102 97 92 88
248 247 247 247 248 248 249 250 250 249 245 244 246 246 246 248 249 249 249 250 249 247 246 245 243 245 249 251 253 255 256 257 260 264 256 244 231 213 200 195 193 190 188 189 196 203 207 217 219 210 205 199 182 174 173 170 171 172 169 169 169 169 165 162 160 158 157 155 152 148 143 139 137 135 132 127 124 119 115 112 111 108 105 101 96 92
247 247 248 249 249 249 248 248 247 246 242 240 242 242 242 243 244 244 245 247 248 246 243 243 241 240 245 247 250 253 254 254 254 255 254 244 234 220 208 201 196 192 188 185 190 198 204 215 218 208 201 195 183 175 174 173 174 173 171 172 172 171 167 163 162 160 160 159 155 151 145 142 141 139 136 133 128 123 119 115 113 111 108 104 99 95
250 249 250 249 247 246 245 245 245 245 241 238 239 241 240 240 240 240 242 244 245 245 242 242 242 240 243 245 245 250 252 251 251 252 252 239 228 222 214 208 201 195 191 185 185 192 201 212 216 206 195 191 186 180 177 175 174 173 171 174 174 172 168 165 164 163 163 162 159 154 149 146 144 143 142 138 133 129 123 118 116 113 110 106 101 96
252 249 248 247 245 245 245 245 245 244 242 238 238 240 239 239 239 239 240 242 243 243 242 242 244 243 242 242 242 246 249 249 249 249 251 240 223 220 218 212 206 201 196 187 183 187 198 211 215 206 194 188 186 183 180 177 175 173 173 175 175 173 171 168 166 165 165 165 163 159 154 151 147 146 145 142 137 132 126 121 117 114 112 108 103 97
253 250 248 248 246 245 245 245 245 244 243 239 238 241 241 240 240 239 239 241 242 244 242 242 245 243 241 239 238 241 244 246 247 246 248 246 228 219 220 215 207 205 201 192 184 184 194 207 214 210 199 189 184 183 182 180 178 176 176 178 177 175 173 171 170 170 169 169 168 165 160 155 151 147 144 140 137 133 128 122 118 116 114 110 107 99
251 247 246 247 245 244 244 245 244 244 243 240 239 240 241 240 239 237 237 240 242 242 241 241 243 242 240 238 236 238 241 243 244 243 245 250 236 221 221 218 209 206 203 195 187 183 192 205 211 210 201 189 182 182 184 184 183 181 181 181 179 177 176 176 176 175 174 173 173 172 167 162 155 148 142 137 133 130 127 124 119 117 115 112 109 102
247 245 245 247 246 246 246 245 245 246 246 242 240 241 241 240 237 235 235 236 239 240 239 240 242 242 241 238 235 235 238 241 242 241 241 247 242 222 217 218 211 205 202 198 190 184 190 204 210 207 195 186 183 185 187 188 186 184 184 184 182 180 180 181 182 180 179 179 179 179 178 173 166 156 146 138 132 129 126 124 119 115 111 108 106 101
247 247 246 247 248 248 247 246 246 245 244 241 240 240 240 238 233 232 232 232 236 237 236 237 238 239 238 236 234 234 236 238 238 238 238 242 244 227 215 215 213 208 205 202 195 187 188 200 207 203 191 185 185 187 189 189 188 187 187 187 186 184 185 187 188 186 185 186 187 188 188 189 184 171 156 143 135 128 123 120 118 114 107 100 94 88
249 247 245 246 247 246 245 243 242 241 240 239 238 238 237 235 230 228 227 227 231 232 232 232 232 233 234 233 232 232 232 233 234 235 236 238 242 233 218 214 216 215 212 212 205 192 187 196 203 200 192 187 185 186 189 191 191 192 191 190 189 188 190 193 194 192 190 192 193 196 198 203 207 201 184 159 142 133 125 118 112 110 105 93 73 48
247 244 242 239 237 240 241 239 239 240 240 238 236 235 234 231 227 226 226 225 227 229 229 229 227 229 231 228 229 231 230 230 232 234 235 235 238 236 224 215 217 219 218 219 213 196 186 193 199 199 193 187 184 185 189 192 195 197 195 192 192 192 195 198 199 197 196 197 198 201 206 213 221 228 226 214 188 160 144 134 120 106 95 84 52 14
242 242 238 233 231 237 238 235 236 239 238 235 234 234 232 230 227 226 226 225 227 229 230 228 227 229 231 228 228 232 231 229 230 233 233 232 233 234 226 214 213 218 219 219 213 197 187 191 196 196 192 187 184 185 188 191 196 198 197 196 197 198 201 203 204 204 203 204 203 204 210 216 224 233 241 242 239 231 210 182 165 146 104 47 11 351
234 234 230 227 229 234 236 233 233 235 234 232 232 232 231 229 229 228 228 227 228 231 232 230 228 231 233 228 228 233 232 228 228 231 232 230 229 230 225 215 210 213 216 216 210 197 187 189 193 192 191 189 187 187 189 192 196 197 197 198 200 202 204 206 207 209 210 211 211 211 213 216 222 232 242 249 252 253 251 247 232 215 224 265 295 309
231 232 229 227 229 231 232 230 227 228 229 228 228 230 229 228 230 232 231 230 231 233 234 231 228 232 234 228 227 233 232 228 228 230 231 229 226 226 223 217 211 210 213 211 205 196 187 188 190 189 190 191 191 190 192 195 197 198 198 200 202 203 203 205 207 210 214 217 219 219 218 219 223 231 238 245 253 257 259 259 256 247 248 255 260 272
233 234 231 228 227 227 228 227 225 226 229 228 227 230 232 231 233 235 234 233 235 235 234 230 226 231 233 227 226 231 230 228 227 227 229 229 226 224 220 217 212 209 211 208 203 196 189 187 188 187 189 192 194 194 195 197 198 200 201 202 203 206 207 210 214 217 221 225 227 226 224 224 226 230 237 243 250 255 258 262 265 266 264 262 258 258
231 232 230 227 228 229 232 233 231 230 229 229 226 227 231 233 233 235 236 236 237 236 232 226 224 228 230 225 223 226 226 226 225 224 226 227 226 224 220 217 212 208 209 208 204 199 191 188 187 187 189 193 196 198 200 201 202 203 204 205 208 212 214 218 222 226 230 234 236 235 232 229 229 233 238 242 247 251 256 262 267 271 271 270 268 263
228 228 229 229 230 233 235 235 235 232 228 227 225 224 228 232 233 236 239 238 238 237 232 225 224 226 227 223 221 223 223 224 224 222 222 224 224 225 223 218 213 208 207 206 206 202 195 191 190 190 191 194 197 201 204 205 206 207 209 212 216 218 220 223 225 229 235 239 242 242 239 234 233 236 239 243 246 250 255 260 264 267 271 273 274 273
225 225 226 229 229 229 231 232 232 231 227 225 226 225 227 231 233 235 237 238 239 239 234 228 226 227 227 223 220 220 220 222 223 222 221 221 222 225 224 219 213 210 207 204 205 204 200 195 194 194 195 196 199 202 205 208 210 213 215 218 221 223 225 226 227 230 236 240 242 244 244 240 237 239 242 244 247 250 254 260 266 270 273 275 277 277
224 223 223 227 228 226 229 230 229 229 225 222 224 223 223 226 229 230 231 231 235 238 235 230 228 228 227 224 221 218 218 219 219 220 219 219 220 223 223 220 215 211 208 205 203 205 205 202 199 199 200 201 201 202 204 207 210 214 218 221 224 226 227 227 229 233 239 242 244 245 244 241 238 238 241 244 248 252 256 264 272 277 280 280 279 278
223 223 222 226 228 226 228 229 229 229 225 223 224 221 220 223 224 225 223 226 234 238 237 233 229 227 226 225 220 218 219 219 219 218 217 217 219 221 222 221 217 213 211 207 204 205 207 207 206 205 206 208 208 207 207 207 210 214 218 222 225 227 229 230 232 236 240 243 244 244 242 239 237 237 240 244 250 255 261 268 275 280 284 285 283 282
223 223 221 225 228 227 227 228 228 228 225 223 222 218 218 219 217 217 218 221 229 234 234 233 231 227 225 224 220 216 217 220 220 220 218 217 219 221 222 222 220 217 214 211 208 207 207 209 211 211 211 213 215 216 214 213 215 217 220 223 226 227 229 230 232 234 236 239 240 240 238 237 237 239 242 247 252 257 262 268 273 278 280 283 284 285
222 223 221 224 227 227 226 225 225 226 225 221 218 215 215 214 211 210 210 215 224 230 232 232 231 229 225 223 219 215 215 217 219 219 218 218 219 220 220 221 221 220 218 215 213 211 209 209 212 215 215 216 217 218 218 219 221 222 223 224 225 226 227 226 228 229 231 234 236 235 234 235 237 240 244 247 252 257 263 267 272 275 277 279 282 283
221 223 222 222 225 226 224 223 223 223 223 222 217 214 214 212 209 208 208 215 224 230 231 230 230 230 227 224 219 214 215 216 217 217 217 216 217 218 218 217 218 218 218 217 216 215 212 210 211 215 218 219 219 219 220 221 223 224 225 226 226 227 227 226 226 228 229 232 232 231 231 234 236 240 243 247 251 256 261 266 271 274 276 278 280 281
219 221 222 221 223 224 222 222 222 221 221 221 216 213 213 209 207 205 206 213 223 230 233 231 229 229 229 226 220 213 212 214 216 216 215 215 216 218 217 216 215 215 215 215 216 216 215 213 212 214 216 218 219 220 221 223 224 226 227 228 228 230 229 228 228 229 231 232 232 232 233 235 238 242 245 249 253 257 261 265 268 272 275 278 279 280
219 220 221 221 221 223 221 220 222 221 219 219 215 211 210 207 204 202 203 210 219 226 232 232 228 223 223 224 219 212 210 210 213 214 215 215 215 217 218 217 217 216 215 214 215 214 214 213 213 214 215 217 218 219 221 223 224 226 228 229 230 232 232 231 232 232 233 235 235 235 237 238 240 244 248 252 256 259 262 265 267 270 274 277 278 279
219 219 220 221 220 222 221 219 221 221 219 218 216 211 209 206 204 202 203 208 213 218 224 231 228 218 214 216 213 210 210 209 211 212 213 215 216 217 218 218 219 219 218 217 217 217 217 215 215 215 216 218 219 220 222 224 225 226 228 229 231 232 233 233 234 235 235 236 237 238 239 240 241 244 248 252 256 260 263 265 267 270 273 276 276 277
219 218 219 220 219 221 221 219 219 219 217 216 214 211 209 206 203 202 202 205 208 210 215 224 227 220 212 211 210 209 210 209 211 212 212 213 216 218 218 219 220 221 221 220 219 220 221 220 218 219 219 220 222 223 224 226 228 229 230 231 232 233 235 236 237 238 238 238 239 240 241 242 243 245 248 252 255 259 261 264 266 268 271 273 274 275
218 218 218 219 218 218 219 218 217 217 216 214 212 210 207 204 203 201 200 202 204 205 209 217 224 223 217 213 212 211 210 210 211 213 212 212 214 216 218 219 221 222 223 223 222 223 223 223 223 223 223 224 225 227 228 229 230 232 233 234 234 236 237 239 240 242 242 242 243 243 243 245 247 248 250 253 255 258 260 262 265 267 269 271 272 272
217 217 218 218 218 217 218 217 216 215 214 213 210 209 207 204 202 199 198 199 200 202 206 213 220 225 223 217 213 211 209 209 210 212 213 214 213 213 215 218 219 221 223 224 224 225 225 225 226 226 226 227 229 230 231 232 233 234 235 235 236 237 238 240 243 245 246 247 247 247 248 249 251 253 254 255 257 259 260 262 265 267 268 270 271 271
217 217 216 217 217 217 216 216 216 215 213 212 210 209 207 204 202 199 197 197 199 199 203 210 216 223 226 221 213 207 205 204 206 209 213 215 214 213 214 215 217 219 221 223 225 226 226 226 227 228 228 229 231 233 234 235 236 236 237 237 237 238 239 241 243 245 247 249 250 251 252 253 255 256 257 258 259 260 262 264 265 267 269 270 270 271
218 217 216 216 216 216 216 215 215 214 213 212 210 208 206 204 202 199 197 197 199 200 203 209 212 217 224 224 215 206 203 202 203 207 211 213 214 215 215 216 216 218 220 222 224 226 227 228 228 228 229 229 231 233 235 237 238 239 240 241 241 241 242 243 245 247 248 250 252 253 254 255 256 257 258 259 260 261 262 264 266 267 269 270 271 273
218 216 215 216 216 215 215 214 214 214 213 212 209 207 206 204 202 200 199 199 200 201 204 209 211 213 220 225 219 209 205 206 207 208 210 210 211 213 215 217 218 219 220 222 224 226 227 229 230 230 230 230 231 233 235 237 239 241 242 244 245 246 246 247 249 250 251 252 254 255 256 256 257 257 258 259 260 261 262 264 266 267 269 270 272 273
218 216 216 216 215 215 215 214 213 213 213 211 209 207 206 204 202 201 200 200 200 201 205 209 211 213 218 224 223 214 208 209 211 211 211 210 210 211 213 215 216 218 220 222 224 226 228 230 231 233 233 233 234 235 237 238 239 241 241 243 245 247 248 249 250 251 253 254 255 256 257 258 258 259 260 261 262 263 264 265 266 268 269 271 272 273
217 216 216 216 215 215 214 214 214 213 213 211 209 207 206 205 203 202 202 201 201 201 204 208 212 214 217 222 224 220 215 212 211 212 213 211 209 209 211 212 213 214 216 219 222 225 227 229 231 233 234 235 237 238 239 241 242 243 243 244 245 246 247 249 250 252 254 255 256 258 259 260 261 261 262 262 264 265 266 267 268 269 270 271 273 274
217 216 216 216 215 215 214 214 214 213 212 211 209 207 207 206 204 203 202 203 203 201 203 208 211 214 217 221 223 224 223 218 211 210 213 213 211 210 209 209 211 211 213 215 218 221 224 226 229 231 233 235 237 238 240 242 244 245 247 247 247 248 249 250 251 252 253 254 256 257 259 260 261 262 263 264 265 267 268 268 269 270 271 272 273 274
217 216 216 215 215 215 213 213 214 213 212 211 209 208 207 207 205 204 204 205 204 202 203 207 210 213 217 221 222 224 227 224 217 213 212 212 214 214 210 208 209 211 214 217 218 220 222 225 227 230 232 234 236 238 240 242 245 246 248 249 250 250 251 252 253 254 255 256 257 258 259 260 261 263 264 265 266 266 267 267 268 270 270 271 272 272
217 216 216 215 215 215 213 213 214 213 212 211 210 209 208 207 206 206 206 206 205 204 204 206 208 211 215 220 221 223 226 227 224 221 216 211 210 212 213 212 211 213 216 220 222 224 225 228 230 231 233 235 237 239 241 242 244 246 247 249 251 252 253 254 255 256 257 258 259 260 261 262 263 264 265 265 266 266 266 267 268 270 271 271 272 273
217 217 216 215 215 215 214 213 213 213 212 211 210 209 209 208 207 208 208 207 206 207 206 206 207 209 213 218 219 221 224 226 227 227 222 212 207 208 211 214 216 218 220 224 227 230 232 234 236 237 237 238 240 242 243 244 244 245 247 248 250 252 253 254 255 256 257 258 260 262 263 264 264 264 265 265 266 267 268 269 270 271 272 273 274 275
217 217 216 215 215 215 214 213 213 213 213 212 210 209 209 209 208 208 209 208 207 208 208 207 207 207 211 215 218 219 222 225 227 230 228 219 211 208 208 211 215 219 224 228 232 236 239 240 241 242 242 243 244 245 247 247 248 248 248 249 250 251 251 252 254 255 256 257 258 259 260 261 262 262 263 264 265 267 268 270 271 272 273 274 275 276
217 217 216 215 215 215 214 213 213 214 213 213 211 209 209 210 209 208 209 209 209 209 209 208 208 207 209 214 217 218 221 223 227 231 231 227 221 215 213 214 216 219 224 228 233 237 240 242 243 244 246 246 247 248 250 251 252 253 254 253 253 252 253 253 254 254 255 256 256 256 257 258 260 261 262 263 265 266 267 269 270 271 272 273 274 275
217 217 217 216 215 214 214 214 214 214 214 213 212 211 209 210 210 210 210 210 210 211 211 210 210 209 210 214 217 219 220 222 226 229 231 232 229 224 220 221 222 223 225 228 231 235 238 241 242 243 246 248 249 250 251 253 255 256 258 258 257 256 256 257 257 258 257 258 259 260 260 260 260 261 262 263 265 265 266 266 267 268 270 271 272 274
216 217 217 216 215 214 214 214 214 215 214 213 212 212 210 211 211 211 211 210 210 211 212 212 212 212 212 214 218 221 221 222 224 228 231 233 233 231 227 226 227 228 229 230 232 234 237 239 241 242 244 246 248 250 251 253 255 257 258 260 260 260 260 260 261 262 263 263 263 264 265 265 265 265 265 266 267 268 268 268 268 269 270 270 272 273
216 216 217 217 216 215 214 214 214 215 214 213 212 212 212 212 212 212 212 211 210 211 212 213 213 213 214 216 218 222 224 224 225 227 230 232 235 235 233 231 231 232 233 234 235 236 237 239 241 243 244 245 246 249 251 252 254 256 258 259 260 261 262 263 263 264 264 265 265 266 268 269 270 270 270 270 271 271 271 271 271 272 273 273 273 274
216 216 216 216 216 216 214 214 214 215 214 214 213 213 213 214 214 213 213 213 212 212 213 214 214 215 216 218 220 222 225 226 227 228 229 232 234 236 236 235 235 235 236 237 238 239 240 240 241 243 245 246 247 248 250 252 253 255 257 258 260 261 262 263 264 264 265 266 267 268 269 271 272 273 273 273 273 273 274 274 274 274 275 276 277 278
216 216 216 216 217 217 215 214 214 214 214 214 215 214 214 215 216 215 214 214 213 213 213 214 215 216 217 219 221 223 225 227 228 229 230 232 234 236 237 237 237 238 238 239 240 241 241 242 243 244 245 247 248 250 251 252 253 255 256 258 259 260 261 262 263 264 264 265 267 268 269 270 272 272 273 274 274 274 274 275 276 277 278 279 280 281
216 216 216 216 216 216 216 215 214 214 214 215 215 215 215 216 217 217 215 215 215 214 214 215 216 217 218 220 222 224 225 227 228 230 231 232 234 235 237 238 239 240 240 241 242 243 243 244 244 245 246 247 249 251 252 254 255 256 257 259 260 260 261 262 262 263 263 264 265 266 267 268 270 271 272 273 274 274 275 275 276 277 278 279 280 281
217 216 216 216 216 216 216 216 215 214 214 215 215 216 216 216 217 218 217 216 216 216 216 216 217 218 219 221 222 224 226 227 228 229 231 232 233 235 236 237 239 240 241 241 243 244 246 247 247 247 248 249 250 251 253 255 256 257 259 260 260 260 261 261 262 262 263 263 264 265 266 267 269 270 272 273 274 274 275 275 275 275 276 277 278 279
216 216 216 215 215 215 215 215 215 215 215 215 215 216 217 217 217 218 219 218 217 217 218 218 219 220 221 222 223 225 226 228 229 229 230 231 233 234 236 237 238 239 241 242 242 244 246 248 249 250 250 251 251 252 253 255 256 258 259 260 260 261 261 261 262 262 262 263 263 264 265 267 269 270 272 273 274 275 275 275 275 276 276 276 276 277
216 216 216 215 215 215 214 215 215 215 215 216 216 216 216 217 217 218 219 219 219 219 219 219 220 221 222 223 225 226 227 229 229 230 230 231 232 234 235 237 238 239 241 242 242 243 245 247 249 251 252 253 253 253 254 255 256 258 259 260 260 261 262 262 263 263 264 264 264 265 266 267 268 269 270 271 272 274 275 276 277 277 277 277 277 277
216 216 216 215 215 215 214 215 215 215 215 216 217 216 216 217 217 218 219 220 220 220 220 220 221 223 223 224 226 227 229 230 231 231 231 231 232 234 235 236 238 239 240 242 243 244 245 246 247 249 251 252 254 255 255 256 257 258 259 260 260 261 262 262 263 264 264 265 266 266 267 268 269 270 271 271 272 273 274 275 276 277 277 278 278 278
215 216 216 216 215 215 215 215 215 214 215 217 217 217 217 217 217 218 219 219 220 221 221 221 222 223 224 225 226 227 229 231 232 232 233 232 233 234 235 236 238 239 240 242 243 244 245 246 247 248 249 251 253 255 256 257 258 259 260 261 262 262 262 263 263 264 264 265 266 266 267 268 269 270 271 272 273 274 275 275 276 277 277 277 278 278
Height
10923 10924 10925 10927 10929 10931 10932 10933 10933 10935 10938 10940 10941 10943 10944 10944 10944 10946 10949 10950 10952 10956 10957 10958 10958 10958 10957 10958 10958 10959 10959 10958 10958 10957 10957 10957 10957 10957 10958 10958 10958 10959 10959 10961 10963 10965 10967 10968 10970 10971 10973 10974 10974 10976 10978 10980 10982 10984 10987 10989 10990 10991 10992 10992 10993 10994 10995 10996 10997 10998 10999 11000 11001 11001 11001 11002 11002 11003 11003 11004 11004 11004 11004 11004 11004 11004
10915 10916 10919 10922 10925 10926 10927 10927 10928 10929 10932 10935 10935 10937 10939 10938 10939 10942 10944 10945 10948 10952 10954 10955 10955 10955 10954 10955 10956 10956 10957 10957 10957 10956 10956 10956 10956 10956 10957 10957 10957 10958 10958 10960 10962 10964 10966 10968 10969 10971 10972 10974 10974 10976 10978 10980 10982 10984 10987 10989 10990 10991 10992 10993 10993 10994 10995 10996 10997 10998 10999 11000 11001 11001 11002 11002 11002 11003 11004 11004 11004 11004 11004 11004 11004 11004
10907 10910 10915 10918 10920 10921 10921 10921 10921 10922 10926 10929 10929 10931 10932 10931 10933 10937 10938 10941 10944 10947 10950 10952 10952 10952 10952 10953 10954 10954 10955 10956 10955 10955 10955 10955 10955 10956 10956 10955 10956 10957 10957 10958 10960 10963 10965 10967 10968 10970 10972 10974 10975 10975 10977 10979 10982 10984 10986 10988 10990 10991 10992 10993 10994 10995 10995 10996 10997 10998 10999 11000 11001 11001 11002 11002 11003 11003 11004 11004 11004 11005 11005 11005 11005 11004
10901 10907 10911 10911 10913 10913 10913 10914 10914 10916 10920 10923 10924 10923 10924 10925 10929 10933 10934 10938 10939 10941 10946 10948 10948 10950 10950 10951 10951 10951 10953 10954 10954 10954 10954 10954 10954 10954 10954 10954 10955 10956 10956 10957 10959 10961 10963 10965 10967 10969 10971 10973 10974 10975 10977 10979 10981 10983 10986 10988 10990 10992 10992 10993 10994 10995 10996 10996 10997 10998 10999 11000 11001 11001 11002 11002 11003 11003 11004 11004 11004 11005 11005 11005 11005 11005
10895 10902 10904 10903 10905 10906 10907 10908 10908 10911 10914 10917 10918 10916 10917 10921 10925 10929 10931 10933 10934 10936 10942 10945 10946 10948 10948 10948 10949 10949 10950 10952 10952 10952 10952 10952 10952 10952 10952 10953 10954 10955 10955 10955 10957 10959 10962 10964 10966 10967 10969 10971 10973 10976 10977 10979 10981 10983 10985 10987 10990 10991 10992 10993 10994 10995 10996 10996 10997 10998 10999 11000 11001 11001 11002 11002 11003 11003 11004 11004 11005 11005 11005 11005 11005 11005
10889 10895 10896 10896 10899 10900 10901 10902 10903 10906 10909 10912 10913 10910 10913 10919 10922 10926 10928 10928 10930 10934 10937 10941 10943 10943 10944 10946 10947 10946 10948 10949 10950 10951 10951 10951 10951 10951 10951 10952 10952 10953 10954 10954 10955 10957 10960 10963 10965 10966 10968 10970 10972 10975 10978 10980 10981 10983 10985 10986 10989 10991 10992 10993 10994 10995 10996 10996 10997 10998 10999 11000 11001 11002 11002 11002 11003 11004 11004 11004 11005 11005 11005 11005 11005 11005
10882 10887 10889 10890 10892 10894 10895 10896 10898 10902 10904 10906 10906 10906 10910 10915 10917 10922 10924 10924 10928 10929 10933 10937 10938 10938 10941 10943 10943 10944 10946 10946 10947 10949 10949 10949 10950 10950 10950 10951 10951 10952 10953 10953 10954 10955 10958 10961 10963 10966 10968 10970 10972 10974 10977 10979 10981 10982 10984 10986 10988 10990 10992 10993 10995 10995 10996 10996 10997 10998 10999 11000 11001 11002 11002 11003 11003 11004 11004 11004 11005 11005 11005 11005 11005 11005
10872 10880 10884 10884 10886 10889 10889 10891 10895 10898 10899 10900 10901 10904 10907 10909 10914 10917 10920 10922 10923 10923 10929 10932 10932 10934 10938 10938 10940 10942 10943 10943 10945 10946 10948 10948 10948 10948 10949 10950 10950 10950 10951 10952 10952 10954 10956 10960 10962 10964 10967 10969 10971 10973 10975 10977 10980 10982 10984 10986 10988 10990 10992 10993 10994 10995 10996 10997 10997 10998 10999 11000 11001 11002 11002 11003 11003 11004 11004 11005 11005 11005 11005 11005 11005 11005
10866 10877 10879 10879 10882 10883 10883 10887 10892 10893 10893 10895 10898 10900 10902 10905 10910 10912 10915 10918 10917 10919 10925 10925 10926 10930 10931 10933 10937 10939 10939 10940 10941 10944 10946 10946 10946 10946 10947 10948 10949 10949 10950 10950 10951 10952 10954 10958 10961 10963 10965 10967 10969 10971 10974 10977 10979 10981 10983 10985 10987 10989 10990 10992 10994 10995 10996 10997 10997 10998 10999 10999 11000 11001 11002 11003 11003 11004 11004 11005 11005 11005 11005 11005 11005 11005
10864 10873 10873 10876 10877 10875 10878 10885 10887 10886 10888 10892 10894 10896 10897 10901 10905 10906 10909 10911 10910 10913 10916 10916 10920 10923 10924 10929 10934 10934 10935 10936 10939 10942 10944 10944 10944 10945 10945 10946 10946 10947 10948 10949 10950 10950 10952 10956 10959 10961 10963 10964 10967 10970 10973 10976 10978 10980 10981 10983 10985 10987 10989 10991 10992 10994 10995 10996 10997 10998 10999 10999 11000 11001 11001 11002 11003 11004 11004 11004 11005 11005 11005 11005 11005 11005
10859 10864 10868 10872 10868 10867 10875 10881 10880 10881 10885 10888 10890 10890 10893 10896 10899 10901 10903 10904 10905 10906 10907 10908 10913 10916 10918 10925 10929 10928 10929 10933 10938 10940 10941 10942 10943 10943 10943 10944 10944 10945 10946 10947 10948 10948 10950 10953 10957 10959 10961 10963 10966 10968 10971 10974 10976 10978 10980 10982 10984 10986 10987 10990 10992 10993 10995 10996 10997 10998 10999 10999 11000 11000 11001 11001 11002 11003 11004 11004 11004 11004 11005 11005 11005 11005
10852 10857 10864 10864 10859 10863 10871 10875 10875 10878 10881 10884 10885 10886 10890 10892 10894 10896 10897 10899 10899 10899 10899 10903 10909 10913 10915 10921 10924 10923 10926 10933 10937 10937 10938 10940 10941 10941 10941 10942 10942 10943 10944 10945 10946 10946 10947 10950 10954 10958 10961 10963 10964 10966 10969 10972 10975 10977 10980 10982 10983 10985 10987 10989 10991 10993 10994 10995 10996 10997 10998 10999 11000 11000 11000 11001 11001 11002 11003 11003 11004 11004 11004 11004 11004 11004
10844 10849 10856 10855 10854 10859 10867 10871 10872 10875 10877 10879 10881 10884 10886 10888 10890 10891 10892 10894 10894 10893 10895 10900 10909 10911 10910 10917 10921 10920 10925 10932 10933 10934 10935 10937 10939 10939 10939 10940 10940 10941 10942 10943 10944 10944 10945 10948 10952 10956 10960 10963 10964 10966 10969 10971 10974 10976 10979 10981 10983 10984 10986 10988 10990 10992 10993 10994 10995 10996 10997 10998 10999 11000 11000 11000 11000 11001 11001 11002 11002 11003 11003 11003 11003 11003
10836 10841 10848 10849 10851 10857 10862 10865 10868 10869 10871 10875 10878 10880 10882 10885 10886 10886 10888 10890 10890 10890 10893 10900 10907 10906 10904 10912 10918 10918 10923 10928 10929 10931 10933 10934 10936 10937 10938 10938 10939 10939 10940 10942 10942 10943 10944 10946 10950 10954 10959 10962 10964 10966 10968 10970 10973 10975 10977 10979 10981 10983 10985 10987 10989 10990 10992 10993 10994 10995 10996 10997 10998 10999 10999 11000 11000 11000 11000 11000 11001 11002 11002 11002 11002 11002
10831 10837 10845 10845 10845 10849 10854 10858 10861 10863 10867 10872 10876 10877 10880 10882 10882 10882 10885 10887 10887 10888 10891 10897 10900 10898 10899 10909 10914 10915 10920 10924 10926 10928 10930 10932 10934 10935 10936 10936 10936 10938 10939 10940 10941 10942 10943 10945 10948 10952 10956 10960 10963 10965 10967 10969 10971 10973 10975 10977 10980 10982 10984 10985 10987 10988 10990 10991 10993 10994 10995 10996 10997 10998 10999 10999 10999 10999 10999 10999 11000 11001 11001 11001 11001 11001
10827 10833 10838 10837 10838 10842 10847 10852 10855 10860 10865 10868 10872 10876 10877 10876 10877 10880 10883 10884 10884 10884 10886 10890 10892 10891 10894 10902 10907 10910 10914 10918 10921 10925 10927 10929 10931 10933 10934 10934 10935 10936 10937 10939 10940 10941 10943 10944 10946 10949 10952 10956 10960 10963 10965 10967 10969 10971 10974 10976 10978 10980 10982 10983 10985 10987 10988 10990 10991 10993 10994 10995 10996 10997 10997 10998 10998 10998 10998 10998 10999 10999 11000 11000 11000 11000
10822 10827 10830 10831 10834 10839 10843 10847 10851 10856 10861 10864 10869 10872 10870 10871 10876 10879 10880 10881 10880 10878 10880 10884 10886 10886 10890 10896 10901 10905 10910 10914 10918 10921 10923 10926 10928 10930 10931 10932 10933 10934 10935 10937 10939 10941 10942 10943 10945 10947 10950 10953 10956 10960 10962 10965 10968 10971 10973 10975 10976 10978 10979 10981 10983 10985 10986 10988 10989 10991 10992 10993 10994 10995 10996 10996 10997 10997 10997 10997 10998 10998 10998 10998 10998 10998
10815 10819 10822 10824 10828 10832 10834 10839 10845 10850 10856 10861 10864 10865 10867 10871 10875 10876 10877 10877 10874 10873 10876 10881 10883 10884 10887 10892 10896 10900 10905 10910 10913 10916 10919 10922 10925 10927 10928 10930 10931 10932 10933 10935 10938 10940 10941 10942 10944 10946 10948 10950 10953 10956 10960 10963 10967 10969 10971 10973 10974 10975 10977 10979 10982 10983 10984 10985 10987 10989 10990 10991 10993 10994 10994 10994 10995 10995 10996 10996 10996 10996 10997 10997 10996 10996
10806 10811 10815 10815 10818 10822 10825 10832 10840 10844 10851 10857 10857 10861 10866 10869 10870 10871 10873 10872 10868 10869 10874 10877 10879 10880 10883 10887 10891 10896 10900 10903 10907 10910 10914 10918 10921 10922 10924 10927 10929 10930 10932 10933 10936 10938 10940 10941 10942 10944 10946 10948 10950 10953 10956 10960 10963 10966 10968 10969 10971 10973 10975 10978 10979 10980 10982 10983 10985 10986 10988 10989 10990 10992 10992 10993 10993 10994 10994 10995 10995 10995 10995 10994 10994 10994
10798 10802 10808 10807 10807 10813 10819 10827 10835 10840 10847 10851 10852 10859 10863 10864 10866 10867 10868 10866 10865 10868 10871 10872 10874 10876 10879 10883 10888 10892 10895 10899 10902 10905 10909 10913 10916 10918 10921 10924 10927 10928 10930 10932 10933 10935 10937 10940 10941 10943 10945 10947 10950 10952 10955 10958 10960 10962 10964 10966 10968 10971 10973 10975 10976 10978 10980 10981 10983 10984 10985 10987 10988 10989 10990 10991 10991 10992 10993 10993 10993 10993 10993 10992 10991 10991
10789 10792 10799 10799 10798 10807 10817 10825 10831 10834 10840 10845 10848 10854 10856 10857 10861 10862 10863 10863 10863 10864 10866 10868 10870 10873 10877 10879 10883 10887 10891 10894 10898 10901 10905 10909 10912 10915 10919 10922 10924 10926 10928 10930 10931 10933 10935 10938 10940 10942 10944 10946 10949 10952 10954 10956 10957 10959 10961 10963 10965 10967 10969 10971 10973 10975 10977 10979 10980 10981 10982 10984 10985 10987 10988 10988 10989 10990 10991 10991 10991 10991 10991 10990 10989 10989
10779 10783 10790 10792 10794 10803 10812 10818 10822 10826 10832 10836 10840 10845 10848 10850 10854 10856 10859 10860 10859 10860 10862 10864 10867 10870 10873 10875 10878 10882 10885 10888 10892 10897 10901 10905 10907 10911 10914 10918 10921 10923 10925 10928 10929 10931 10933 10935 10938 10940 10942 10944 10947 10949 10952 10953 10954 10956 10957 10959 10961 10963 10965 10967 10969 10972 10974 10976 10977 10979 10980 10981 10982 10984 10985 10985 10986 10987 10988 10988 10988 10988 10988 10987 10987 10987
10772 10775 10781 10785 10788 10794 10802 10809 10813 10818 10823 10828 10835 10841 10844 10848 10852 10855 10857 10856 10856 10857 10859 10862 10865 10867 10869 10871 10874 10878 10880 10884 10887 10890 10895 10898 10901 10904 10907 10911 10915 10918 10921 10924 10927 10929 10930 10933 10935 10938 10940 10942 10944 10946 10948 10949 10950 10952 10953 10956 10958 10959 10960 10963 10966 10969 10971 10972 10974 10975 10977 10978 10979 10980 10981 10982 10983 10984 10985 10985 10985 10984 10984 10984 10984 10983
10762 10765 10770 10776 10779 10783 10793 10802 10805 10810 10817 10823 10832 10838 10841 10846 10850 10852 10853 10853 10854 10855 10856 10860 10862 10864 10866 10868 10871 10874 10877 10879 10881 10884 10888 10892 10895 10898 10901 10905 10908 10911 10915 10918 10922 10924 10927 10929 10932 10934 10936 10938 10941 10943 10944 10945 10946 10948 10950 10952 10954 10955 10957 10960 10963 10965 10967 10968 10969 10972 10973 10974 10975 10977 10978 10979 10980 10981 10981 10981 10981 10981 10980 10980 10980 10980
10752 10756 10759 10765 10770 10776 10786 10794 10797 10805 10814 10820 10827 10832 10837 10841 10845 10848 10849 10850 10852 10853 10854 10856 10858 10860 10863 10864 10867 10870 10871 10873 10875 10878 10882 10886 10889 10892 10896 10900 10903 10906 10909 10912 10915 10918 10921 10924 10927 10929 10931 10933 10936 10938 10939 10940 10942 10944 10946 10948 10950 10951 10954 10957 10959 10961 10962 10963 10965 10967 10968 10969 10971 10972 10974 10975 10976 10977 10978 10978 10977 10977 10977 10976 10976 10976
10741 10747 10750 10756 10765 10771 10780 10788 10794 10802 10811 10816 10822 10828 10833 10837 10841 10843 10844 10847 10850 10851 10851 10851 10852 10856 10859 10860 10862 10864 10866 10869 10871 10873 10877 10881 10885 10888 10891 10896 10899 10902 10905 10909 10912 10915 10917 10920 10922 10924 10927 10928 10930 10932 10934 10936 10938 10940 10942 10944 10946 10948 10951 10954 10955 10956 10957 10959 10961 10962 10963 10965 10966 10968 10970 10971 10973 10973 10973 10973 10973 10973 10973 10973 10973 10973
10731 10738 10742 10749 10759 10765 10772 10781 10789 10796 10803 10809 10816 10823 10828 10832 10835 10837 10840 10844 10845 10846 10847 10846 10846 10850 10854 10856 10858 10860 10863 10865 10867 10869 10873 10876 10880 10884 10888 10892 10896 10899 10902 10905 10909 10911 10913 10916 10918 10920 10922 10924 10926 10928 10930 10932 10934 10936 10939 10941 10943 10946 10948 10950 10951 10952 10953 10955 10956 10958 10959 10961 10962 10964 10966 10967 10968 10969 10969 10969 10969 10969 10969 10969 10969 10969
10721 10728 10733 10740 10749 10757 10765 10774 10782 10788 10794 10801 10808 10814 10819 10824 10828 10831 10836 10838 10839 10842 10844 10842 10841 10845 10849 10852 10855 10857 10859 10862 10863 10866 10869 10872 10876 10880 10884 10889 10893 10896 10899 10903 10906 10907 10909 10912 10914 10916 10919 10921 10923 10925 10927 10929 10931 10933 10935 10938 10941 10943 10945 10946 10947 10948 10949 10951 10953 10953 10955 10957 10958 10960 10962 10963 10963 10964 10964 10964 10964 10965 10965 10965 10965 10965
10710 10718 10725 10732 10742 10751 10758 10766 10773 10780 10786 10793 10800 10805 10810 10816 10820 10825 10829 10832 10835 10840 10840 10837 10838 10841 10844 10848 10851 10853 10856 10858 10860 10863 10865 10867 10871 10875 10880 10884 10888 10891 10895 10898 10901 10903 10905 10908 10910 10913 10915 10918 10920 10922 10924 10926 10927 10929 10931 10934 10937 10939 10941 10942 10943 10944 10945 10947 10948 10949 10951 10953 10954 10955 10957 10958 10959 10959 10959 10959 10959 10959 10960 10960 10960 10960
10700 10709 10718 10726 10735 10744 10750 10757 10765 10772 10779 10786 10792 10798 10803 10809 10814 10819 10824 10828 10831 10834 10834 10833 10835 10838 10839 10842 10846 10849 10852 10855 10857 10859 10861 10863 10867 10871 10875 10878 10882 10886 10889 10892 10895 10898 10901 10904 10907 10910 10912 10915 10916 10917 10919 10921 10923 10925 10927 10930 10933 10935 10936 10938 10939 10939 10940 10941 10942 10944 10947 10949 10949 10951 10953 10954 10954 10955 10955 10955 10955 10955 10955 10955 10955 10955
10690 10700 10711 10718 10726 10734 10741 10749 10756 10763 10770 10777 10784 10791 10797 10803 10808 10814 10819 10823 10826 10829 10829 10828 10831 10834 10834 10837 10841 10845 10848 10851 10853 10855 10857 10860 10864 10867 10870 10873 10877 10881 10884 10887 10890 10892 10896 10899 10902 10905 10908 10910 10911 10913 10915 10916 10918 10921 10923 10926 10928 10930 10932 10933 10934 10935 10935 10936 10938 10940 10942 10943 10945 10946 10947 10948 10949 10950 10950 10950 10950 10950 10950 10950 10950 10950
10682 10694 10704 10709 10716 10724 10731 10739 10747 10755 10762 10769 10777 10785 10791 10796 10803 10808 10813 10817 10821 10824 10824 10825 10828 10829 10829 10832 10838 10843 10846 10848 10850 10852 10854 10857 10860 10863 10866 10869 10872 10876 10879 10882 10885 10887 10890 10893 10896 10899 10902 10904 10906 10908 10909 10912 10914 10917 10919 10921 10923 10925 10928 10929 10929 10930 10931 10932 10933 10934 10936 10937 10939 10940 10941 10942 10943 10944 10945 10945 10945 10944 10944 10944 10944 10945
10674 10686 10694 10698 10706 10714 10722 10731 10740 10747 10754 10762 10771 10778 10783 10789 10795 10800 10805 10810 10815 10819 10820 10823 10824 10822 10823 10829 10835 10840 10843 10845 10846 10848 10852 10855 10858 10860 10862 10864 10867 10871 10874 10877 10880 10883 10885 10888 10891 10893 10896 10898 10901 10902 10905 10907 10909 10911 10913 10915 10918 10921 10922 10923 10924 10925 10926 10927 10928 10928 10929 10931 10933 10934 10936 10937 10938 10938 10939 10940 10939 10939 10939 10939 10939 10939
10666 10676 10683 10689 10698 10706 10715 10725 10732 10739 10746 10754 10763 10769 10775 10781 10787 10793 10799 10805 10809 10814 10816 10817 10817 10818 10821 10825 10830 10834 10837 10839 10843 10847 10850 10853 10856 10857 10859 10860 10863 10865 10868 10872 10874 10877 10880 10882 10885 10887 10889 10892 10894 10897 10899 10901 10903 10904 10907 10910 10913 10915 10916 10917 10918 10920 10921 10922 10922 10922 10924 10925 10927 10928 10930 10931 10932 10933 10933 10934 10933 10933 10933 10934 10934 10934
10657 10665 10672 10680 10688 10697 10708 10717 10722 10729 10738 10746 10755 10763 10768 10775 10781 10787 10793 10797 10801 10807 10810 10811 10813 10815 10817 10819 10824 10828 10831 10835 10841 10846 10848 10850 10851 10853 10855 10857 10859 10861 10864 10866 10869 10871 10874 10877 10879 10881 10883 10886 10889 10891 10893 10895 10897 10900 10902 10904 10906 10908 10909 10911 10913 10914 10915 10916 10916 10917 10918 10919 10920 10922 10923 10925 10927 10927 10927 10927 10926 10926 10927 10928 10928 10928
10646 10654 10662 10671 10679 10688 10699 10707 10712 10721 10731 10740 10749 10756 10760 10766 10773 10779 10784 10788 10794 10800 10804 10806 10809 10811 10810 10813 10818 10823 10825 10830 10836 10840 10842 10844 10846 10848 10851 10853 10855 10858 10860 10862 10864 10867 10869 10872 10874 10877 10879 10882 10884 10886 10888 10890 10893 10895 10896 10898 10899 10901 10903 10905 10907 10908 10908 10909 10911 10912 10912 10913 10914 10916 10918 10919 10920 10920 10919 10919 10919 10919 10920 10921 10921 10921
10634 10643 10653 10662 10670 10679 10689 10698 10704 10713 10724 10734 10741 10746 10752 10758 10765 10771 10776 10782 10789 10795 10799 10801 10803 10805 10805 10807 10812 10817 10820 10824 10829 10831 10834 10837 10840 10844 10847 10850 10853 10855 10857 10860 10862 10864 10866 10868 10871 10873 10875 10877 10879 10881 10884 10886 10887 10889 10890 10892 10893 10895 10897 10899 10900 10901 10902 10903 10904 10905 10906 10908 10909 10910 10911 10912 10912 10911 10911 10912 10912 10912 10913 10913 10913 10914
10623 10633 10644 10652 10660 10669 10679 10687 10696 10706 10716 10722 10728 10736 10744 10750 10757 10763 10769 10776 10782 10787 10791 10794 10796 10799 10800 10801 10807 10811 10814 10818 10821 10821 10824 10830 10836 10841 10844 10848 10850 10853 10855 10857 10859 10861 10864 10865 10867 10869 10871 10873 10875 10877 10879 10881 10882 10884 10885 10887 10888 10889 10891 10892 10893 10895 10896 10897 10899 10900 10900 10902 10902 10902 10903 10903 10903 10904 10904 10905 10905 10905 10905 10905 10905 10906
10613 10623 10632 10642 10651 10659 10669 10679 10690 10698 10703 10709 10718 10728 10736 10741 10748 10755 10760 10767 10774 10777 10781 10785 10789 10792 10794 10796 10800 10805 10808 10812 10813 10814 10819 10827 10832 10836 10840 10844 10847 10849 10851 10853 10855 10858 10859 10861 10864 10866 10867 10869 10871 10872 10874 10876 10877 10879 10880 10882 10884 10884 10885 10886 10887 10889 10890 10891 10893 10894 10893 10894 10894 10894 10895 10896 10897 10898 10898 10899 10899 10899 10899 10898 10899 10898
10602 10612 10622 10633 10642 10652 10661 10672 10681 10685 10690 10700 10711 10721 10727 10733 10740 10747 10752 10758 10763 10767 10772 10778 10782 10786 10789 10791 10794 10798 10803 10806 10808 10810 10815 10820 10825 10830 10834 10838 10842 10844 10846 10848 10851 10853 10854 10857 10859 10861 10863 10865 10866 10868 10870 10871 10872 10874 10875 10877 10878 10878 10879 10880 10882 10883 10884 10885 10886 10886 10886 10887 10887 10887 10888 10889 10890 10892 10893 10893 10893 10893 10892 10892 10892 10892
10591 10601 10612 10623 10633 10642 10652 10662 10669 10674 10681 10693 10703 10711 10719 10726 10732 10737 10742 10747 10753 10759 10765 10771 10776 10780 10784 10786 10789 10793 10797 10801 10803 10806 10810 10813 10817 10823 10828 10832 10836 10839 10842 10844 10846 10848 10850 10852 10854 10857 10858 10860 10862 10864 10865 10866 10867 10868 10869 10871 10871 10871 10872 10874 10875 10877 10878 10878 10879 10879 10880 10880 10881 10881 10882 10883 10884 10886 10887 10888 10887 10887 10886 10886 10886 10887
10581 10591 10603 10613 10623 10633 10643 10651 10658 10662 10671 10682 10693 10702 10711 10716 10720 10725 10731 10738 10746 10753 10759 10765 10770 10775 10778 10781 10784 10787 10790 10795 10798 10800 10804 10807 10811 10816 10821 10826 10830 10833 10836 10839 10842 10844 10846 10848 10849 10852 10853 10855 10856 10858 10860 10861 10862 10863 10864 10865 10865 10865 10866 10867 10869 10870 10871 10872 10872 10873 10873 10873 10874 10875 10876 10877 10878 10879 10880 10881 10881 10881 10881 10881 10881 10881
10574 10583 10593 10603 10612 10622 10630 10638 10645 10651 10661 10675 10686 10694 10700 10705 10710 10718 10725 10733 10741 10748 10753 10759 10764 10768 10772 10775 10779 10781 10784 10789 10792 10795 10799 10802 10805 10809 10815 10820 10824 10827 10830 10833 10836 10839 10841 10843 10845 10846 10848 10850 10851 10852 10854 10856 10856 10858 10859 10859 10859 10860 10861 10862 10863 10864 10865 10865 10866 10866 10867 10867 10868 10869 10869 10871 10872 10873 10874 10874 10874 10874 10874 10874 10874 10874
10564 10572 10581 10591 10599 10607 10617 10627 10636 10644 10657 10670 10679 10685 10692 10698 10705 10712 10719 10727 10734 10741 10746 10752 10756 10762 10766 10769 10773 10775 10778 10782 10785 10789 10793 10797 10800 10804 10809 10813 10817 10821 10824 10827 10830 10833 10835 10837 10839 10841 10843 10844 10846 10847 10848 10850 10851 10852 10853 10853 10854 10854 10855 10856 10857 10858 10858 10859 10859 10860 10860 10861 10861 10862 10863 10863 10865 10866 10866 10866 10867 10867 10867 10866 10867 10867
10552 10561 10571 10581 10589 10599 10611 10623 10632 10642 10654 10664 10670 10676 10685 10691 10696 10703 10711 10719 10725 10732 10738 10743 10748 10754 10758 10762 10766 10769 10772 10776 10779 10783 10788 10792 10795 10799 10803 10807 10811 10814 10817 10820 10823 10826 10829 10831 10833 10835 10837 10839 10840 10842 10843 10844 10845 10846 10847 10847 10848 10849 10849 10850 10850 10851 10852 10853 10853 10854 10854 10855 10855 10855 10856 10857 10858 10859 10859 10859 10860 10860 10860 10859 10860 10860
10542 10553 10563 10572 10581 10592 10605 10616 10626 10636 10645 10652 10658 10666 10675 10681 10686 10694 10703 10710 10715 10722 10728 10734 10740 10745 10750 10754 10758 10761 10765 10770 10773 10777 10782 10786 10790 10794 10798 10801 10804 10807 10810 10813 10816 10819 10822 10824 10827 10829 10831 10833 10835 10836 10837 10838 10839 10840 10840 10841 10842 10842 10843 10844 10844 10845 10845 10846 10846 10847 10847 10848 10848 10848 10849 10850 10851 10852 10852 10853 10853 10853 10853 10853 10853 10852
10534 10544 10553 10563 10573 10585 10596 10606 10617 10627 10634 10640 10649 10658 10665 10671 10677 10683 10691 10699 10706 10713 10720 10726 10731 10737 10742 10747 10751 10754 10758 10763 10767 10771 10776 10780 10783 10787 10790 10794 10798 10800 10803 10807 10810 10812 10814 10816 10819 10821 10824 10826 10828 10830 10831 10832 10833 10833 10834 10834 10835 10835 10836 10837 10837 10838 10838 10839 10839 10840 10840 10841 10842 10842 10842 10844 10845 10845 10845 10846 10846 10847 10846 10846 10845 10845
10525 10534 10544 10556 10567 10577 10588 10599 10610 10619 10626 10632 10640 10647 10651 10657 10665 10673 10681 10690 10698 10705 10712 10718 10724 10730 10735 10739 10743 10746 10750 10755 10759 10764 10769 10772 10776 10779 10783 10787 10790 10793 10797 10800 10804 10806 10807 10809 10811 10813 10815 10818 10821 10823 10824 10825 10826 10826 10827 10827 10828 10828 10829 10829 10830 10830 10831 10832 10833 10833 10834 10835 10835 10835 10836 10836 10837 10837 10838 10838 10838 10839 10839 10839 10838 10838
10517 10527 10538 10549 10559 10569 10581 10591 10599 10607 10613 10618 10624 10631 10638 10647 10657 10666 10674 10682 10690 10697 10704 10710 10717 10722 10727 10731 10735 10739 10743 10747 10751 10756 10761 10765 10769 10772 10776 10779 10783 10786 10790 10793 10796 10799 10801 10802 10803 10805 10807 10809 10812 10814 10816 10817 10818 10819 10819 10820 10820 10821 10821 10822 10822 10823 10824 10825 10826 10826 10827 10828 10828 10828 10828 10829 10829 10830 10830 10830 10830 10831 10831 10830 10830 10830
10510 10520 10530 10540 10550 10561 10573 10581 10588 10596 10603 10608 10614 10623 10633 10642 10651 10659 10665 10673 10681 10688 10695 10702 10709 10713 10717 10722 10726 10730 10734 10738 10742 10747 10752 10757 10761 10765 10769 10772 10775 10779 10783 10785 10788 10791 10793 10795 10797 10798 10799 10801 10803 10805 10807 10808 10810 10811 10811 10812 10813 10814 10814 10814 10815 10816 10816 10817 10818 10818 10819 10820 10820 10821 10821 10821 10822 10823 10823 10823 10823 10823 10823 10822 10821 10821
10505 10513 10522 10532 10543 10554 10563 10571 10579 10589 10595 10599 10606 10615 10624 10632 10640 10648 10656 10664 10671 10678 10686 10694 10699 10702 10707 10712 10717 10721 10725 10728 10732 10737 10742 10748 10753 10757 10761 10765 10768 10772 10775 10777 10780 10782 10785 10787 10789 10790 10792 10793 10795 10796 10798 10799 10801 10802 10803 10804 10805 10806 10807 10807 10807 10808 10808 10809 10810 10810 10811 10811 10812 10812 10813 10813 10814 10814 10815 10815 10815 10815 10815 10814 10814 10814